Regional Weather Roundup
Issued by NWS

Home | Current Version | Previous Version | Text Only | Print | Product List | Glossary On
Versions: 1 2 3 4 5 6 7 8 9 10 11 12 13 14 15 16 17 18 19 20 21 22 23 24 25 26 27 28 29 30 31 32 33 34 35 36 37 38 39 40 41 42 43 44 45 46 47 48 49 50
000
ASUS44 KFWD 281615
RWRTX
NORTH TEXAS HOURLY WEATHER ROUNDUP
NATIONAL WEATHER SERVICE FORT WORTH TX
1100 AM CDT TUE MAR 28 2017

NOTE: "FAIR" INDICATES FEW OR NO CLOUDS BELOW 12,000 FEET WITH NO
SIGNIFICANT WEATHER AND/OR OBSTRUCTIONS TO VISIBILITY.

TXZ118-119-281700-
DALLAS/FORT WORTH METROPLEX

CITY           SKY/WX    TMP DP  RH WIND       PRES   REMARKS
DFW AIRPORT    PTSUNNY   70  63  78 E9        29.87F
DALLAS LOVE    PTSUNNY   71  62  73 E10       29.89F
FTW MEACHAM    CLOUDY    68  61  78 E9        29.87F
DAL-EXECUTIVE  CLOUDY    69  63  81 E9        29.89F
FTW-ALLIANCE   CLOUDY    68  62  81 E12       29.87F
FTW-NAS-JRB    CLOUDY    67  62  84 E7        29.88F
FTW-SPINKS     CLOUDY    66  63  88 E5        29.89F FOG
ARLINGTON      CLOUDY    68  63  84 E7        29.88F
GRAND PRAIRIE  MOSUNNY   66  63  88 E7        29.90F
ADDISON        CLOUDY    68  61  77 E10       29.91F
MESQUITE       CLOUDY    70  64  83 E5        29.91F
LANCASTER      PTSUNNY   69  64  85 E7        29.90F
$$

TXZ091>094-102>105-117-120-121-131>134-281700-
NORTH CENTRAL TEXAS

CITY           SKY/WX    TMP DP  RH WIND       PRES   REMARKS
SHRMAN/DENISON CLOUDY    60  55  83 E6        29.94S
GAINESVILLE    CLOUDY    59  54  82 E8        29.94S
BOWIE          CLOUDY    61  56  83 E7        29.90F
BRIDGEPORT     CLOUDY    63  57  81 E9        29.90F
DECATUR        CLOUDY    61  57  87 E10       29.90F FOG
DENTON         CLOUDY    64  59  83 E10       29.90F
MCKINNEY       CLOUDY    64  61  90 E6        29.92F
BONHAM         CLOUDY    61  57  88 E13       29.94S
GREENVILLE     CLOUDY    68  61  77 SE6       29.93F
ROCKWALL       CLOUDY    69  63  81 SE8       29.91F
TERRELL        CLOUDY    71  63  75 SE7       29.92S
WAXAHACHIE     CLOUDY    68  66  94 E7        29.90S
CLEBURNE       CLOUDY    68  66  94 SE12      29.89S FOG
GRANBURY       CLOUDY    68  64  86 E9        29.87F FOG
$$

TXZ083>090-098>101-113>116-127>130-139>142-154-155-281700-
WESTERN NORTH TEXAS

CITY           SKY/WX    TMP DP  RH WIND       PRES   REMARKS
WICHITA FALLS  CLOUDY    59  51  75 E18G25    29.87F
WF-KICKAPOO    CLOUDY    59  52  77 E14G28    29.89F
VERNON         CLOUDY    59  47  64 E21G26    29.86F
ABILENE        CLOUDY    69  63  81 SE20      29.78F
ABILENE-DYESS  CLOUDY    72  63  73 S16       29.76F
GRAHAM         CLOUDY    65  61  86 E10       29.83F
BRECKENRIDGE   CLOUDY    69  60  74 SE13      29.81F
CISCO          PTSUNNY   66  63  88 SE17G24   29.81F
RANGER         CLOUDY    63  61  94 SE9       29.84F
MINERAL WELLS  CLOUDY    66  60  81 E12       29.84F
STEPHENVILLE   CLOUDY    67  64  88 SE14      29.87F
COMANCHE       CLOUDY    69  66  92 SE9       29.82F
BROWNWOOD      CLOUDY    72  64  78 SE17      29.80F
COLEMAN        CLOUDY    70  63  77 SE18G25   29.80S
$$

TXZ143>147-156>162-174-175-281700-
CENTRAL TEXAS

CITY           SKY/WX    TMP DP  RH WIND       PRES   REMARKS
WACO           CLOUDY    71  68  90 SE12      29.86F FOG
WACO-MCGREGOR  LGT RAIN  70  70 100 SE5       29.87F FOG
HILLSBORO      CLOUDY    70  66  89 E9        29.88S
CORSICANA      CLOUDY    74  69  85 SE13      29.90F
MEXIA          CLOUDY    73  67  81 SE9       29.88S HAZE
HEARNE         CLOUDY    75  70  86 SE10      29.88S
CAMERON        CLOUDY    77  70  78 SE12G17   29.86S
TEMPLE         CLOUDY    72  69  90 SE10      29.87S
KILLEEN        CLOUDY    70  68  94 SE12      29.84F
KILLEEN-SKYLRK CLOUDY    74  68  81 SE13      29.86S
FORT HOOD      CLOUDY    70  67  90 SE10      29.83S
GATESVILLE     CLOUDY    70  70 100 CALM      29.88S FOG
HAMILTON       CLOUDY    69  69 100 SE10G17   29.86F FOG
LAMPASAS       PTSUNNY   71  68  91 SE8       29.84F FOG
$$

TXZ095>097-106>112-122>126-135>138-148>153-164>167-281700-
EAST TEXAS

CITY           SKY/WX    TMP DP  RH WIND       PRES   REMARKS
PARIS          CLOUDY    63  55  77 E13       29.96S
SULPHUR SPRNGS CLOUDY    67  62  83 SE6       29.96S
MOUNT PLEASANT PTSUNNY   69  61  75 E7        29.96F
GILMER         CLOUDY    72  64  75 E5        29.95S
MINEOLA        CLOUDY    70  64  83 SE5       29.93F
TYLER          CLOUDY    73  66  78 SE7       29.93S
LONGVIEW       CLOUDY    74  68  81 E9        29.94R
MARSHALL       PTSUNNY   73  65  76 SE3       29.97S
ATHENS         CLOUDY    72  68  88 SE8       29.91S
PALESTINE      CLOUDY    73  68  84 SE5       29.93R
JACKSONVILLE   CLOUDY    72  67  85 SE5       29.95S
HENDERSON      CLOUDY    72  67  83 E5        29.95S
NACOGDOCHES    CLOUDY    72  66  83 SE12      29.93R
LUFKIN         CLOUDY    75  68  78 SE10      29.93R
$$

SUPPLEMENTAL OBSERVATIONS (CENTRAL)

CITY           SKY/WX    TMP DP  RH WIND       PRES   REMARKS
DENISON DAM      N/A     61  54  77 E6          N/A
CADDO GRASSLND   N/A     63  55  77 SE6         N/A
PAT MAYSE LAKE   N/A     63  59  88 E7          N/A
GREENVILLE       N/A     66  61  82 E7          N/A
CEDAR HILL       N/A     70  64  83 E2          N/A
ATHENS           N/A     73  64  73 SE9         N/A
LAKE LIMESTONE   N/A     79  68  69 SE8         N/A
MCGREGOR         N/A     72  70  94 SE10        N/A
TEMPLE           N/A     73  70  88 SE9         N/A
$$

SUPPLEMENTAL OBSERVATIONS (WEST)

CITY           SKY/WX    TMP DP  RH WIND       PRES   REMARKS
MILLERS CREEK    N/A     64  57  77 E14         N/A
POSSUM KINGDOM   N/A     64  59  82 E9          N/A
LBJ GRASSLAND    N/A     61  57  88 E8          N/A
GRANBURY         N/A     66  63  88 SE8         N/A
COMANCHE         N/A     70  66  88 SE14        N/A
HAMBY            N/A     66  61  82 E13         N/A
IVIE RESERVOIR   N/A     72  63  73 SE17G26     N/A
COLORADO BEND    N/A     70  64  83 S9          N/A
$$

SUPPLEMENTAL OBSERVATIONS (EAST)

CITY           SKY/WX    TMP DP  RH WIND       PRES   REMARKS
CLARKSVILLE      N/A     64  57  77 E7          N/A
TEXARKANA        N/A     68  59  73 SE5         N/A
LINDEN           N/A     66  59  77 E7          N/A
CADDO LAKE       N/A    N/A N/A N/A NE5         N/A
GILMER           N/A     75  64  69 SE5         N/A
HENDERSON        N/A     73  68  83 E6          N/A
LUFKIN           N/A     75  66  73 MISG        N/A
N SABINE NF      N/A     75  68  78 MISG        N/A
S SABINE NF      N/A     77  68  73 NW3         N/A
$$

SUPPLEMENTAL OBSERVATIONS ARE A COLLECTION OF AUTOMATED INSTRUMENTS
THAT ARE MAINTAINED BY A VARIETY OF FEDERAL AND STATE AGENCIES.
CERTAIN ELEMENTS...SUCH AS HUMIDITY VALUES AND SUSTAINED WIND
SPEEDS...MAY BE APPROXIMATED.





USA.gov is the U.S. government's official web portal to all federal, state and local government web resources and services.